Погода в Барановке

Украина / Житомирская область     50˚17′37″N   27˚39′59″E
темп.,
°C
ветер,
м/с
пор.,
м/с
влажн.,
%
обл.,
%
осадки,
мм/ч
давл.,
гПа
погр.,
м
16 января, сб
сб1623:00−11˚сз489399 0.1 1014540
02:00−15˚зсз379586 0.1 1014224
05:00−15˚сз479499 0.1 1015499
08:00−17˚зсз4794100 0.1 1016395
11:00−16˚зсз478899 0.0 1018484
14:00−14˚зсз4784100 0.1 1017680
17:00−15˚з259397 0.0 1017200
20:00−16˚зюз129678 0.0 101722
17 января, вс
вс1723:00−15˚ююз229475 0.0 101756
02:00−13˚ю239383 0.0 1016100
05:00−12˚ююв1295100 0.3 101691
08:00−12˚в229699 0.6 101665
11:00−11˚св128999 0.1 1017218
14:00−10˚с2388100 0.1 1017339
17:00−12˚с2393100 0.1 1017186
20:00−12˚ссз2494100 0.4 1018341
18 января, пн
пн1823:00−13˚ссз3592100 0.4 1019393
02:00−17˚сз369596 0.4 1020196
05:00−18˚сз369797 0.0 1020213
08:00−19˚сз369796 0.1 1021198
11:00−17˚сз359183 0.0 1022295
14:00−16˚сз359080 0.0 1022306
17:00−17˚зсз379378 0.0 1022195
20:00−17˚зсз379189 0.0 1023226
19 января, вт
вт1923:00−17˚зсз359493 0.0 1023158
02:00−17˚зсз359487 0.0 1023139
05:00−17˚зсз349487 0.0 1022117
08:00−16˚з239189 0.0 102372
11:00−13˚зюз238070 0.0 1023181
14:00−10˚юз248641 0.0 1021222
17:00−12˚ююз339325 0.0 102157
20:00−10˚ююз359626 0.0 1021105
20 января, ср
ср2023:00−9˚ююз379674 0.1 1021162
02:00−6˚юз489586 0.2 1020270
05:00−7˚ююз4892100 0.1 1019206
08:00−7˚ю488899 0.1 1019207
11:00−4˚ю4987100 0.0 1019292
14:00−2˚ююз599294 0.0 1018419
17:00−3˚ю499585 0.1 1018297
20:00−3˚ю5109191 0.2 1018280